When you browse on this site, cookies collect data to enhance your experience and personalize the content and advertising you see.
Visit our Privacy Policy to learn more. By continuing to use the site, you agree to this use of cookies and data.
  • en Suisse
  • Liste des pays
  • À 7 jours
  • Température de l'eau
  • Carte satellitaire
  • Carte météo
  • Widgets météo
  • user-avatar
    Se connecter

    Météo par heure à Zelenaya Gorka

    Ce jour, 17 Juin, Lundi

    Heure Température Précipitation Vent Pression Humidité
    00:00 +13°C° 0 mm 0 m/s 743 mmHg 90%
    01:00 +13°C° 0 mm 0 m/s 743 mmHg 91%
    02:00 +13°C° 0 mm 0 m/s 743 mmHg 91%
    03:00 +14°C° 0 mm 0 m/s 743 mmHg 90%
    04:00 +14°C° 0 mm 0 m/s 743 mmHg 89%
    05:00 +15°C° 0 mm 0 m/s 743 mmHg 88%
    06:00 +19°C° 0 mm 1 m/s 743 mmHg 83%
    07:00 +20°C° 0 mm 1 m/s 744 mmHg 79%
    08:00 +21°C° 0 mm 2 m/s 744 mmHg 74%
    09:00 +23°C° 0 mm 2 m/s 744 mmHg 69%
    10:00 +24°C° 0 mm 2 m/s 744 mmHg 64%
    11:00 +25°C° 0 mm 3 m/s 744 mmHg 59%
    12:00 +25°C° 0 mm 3 m/s 744 mmHg 59%
    13:00 +25°C° 0 mm 3 m/s 743 mmHg 59%
    14:00 +25°C° 0 mm 3 m/s 743 mmHg 58%
    15:00 +25°C° 0.1 mm 2 m/s 743 mmHg 63%
    16:00 +24°C° 0.1 mm 2 m/s 743 mmHg 67%
    17:00 +24°C° 0.1 mm 2 m/s 742 mmHg 72%
    18:00 +22°C° 0 mm 1 m/s 742 mmHg 76%
    19:00 +21°C° 0 mm 1 m/s 742 mmHg 80%
    20:00 +17°C° 0 mm 0 m/s 742 mmHg 84%
    21:00 +19°C° 0 mm 1 m/s 742 mmHg 86%
    22:00 +18°C° 0 mm 2 m/s 742 mmHg 88%
    23:00 +17°C° 0 mm 2 m/s 742 mmHg 89%

    Demain, 18 Juin, Mardi

    Heure Température Précipitation Vent Pression Humidité
    00:00 +17°C° 0.2 mm 2 m/s 742 mmHg 91%
    01:00 +17°C° 0.2 mm 2 m/s 742 mmHg 93%
    02:00 +17°C° 0.2 mm 3 m/s 741 mmHg 95%
    03:00 +17°C° 1.4 mm 3 m/s 741 mmHg 95%
    04:00 +17°C° 1.4 mm 3 m/s 741 mmHg 95%
    05:00 +18°C° 1.4 mm 4 m/s 741 mmHg 95%
    06:00 +18°C° 0.2 mm 3 m/s 741 mmHg 95%
    07:00 +19°C° 0.2 mm 3 m/s 741 mmHg 94%
    08:00 +19°C° 0.2 mm 3 m/s 741 mmHg 94%
    09:00 +20°C° 0 mm 3 m/s 741 mmHg 92%
    10:00 +20°C° 0 mm 3 m/s 741 mmHg 91%
    11:00 +20°C° 0 mm 3 m/s 742 mmHg 90%
    12:00 +21°C° 0.1 mm 3 m/s 741 mmHg 85%
    13:00 +22°C° 0.1 mm 4 m/s 741 mmHg 81%
    14:00 +23°C° 0.1 mm 4 m/s 741 mmHg 77%
    15:00 +24°C° 0.1 mm 3 m/s 741 mmHg 76%
    16:00 +24°C° 0.1 mm 3 m/s 742 mmHg 74%
    17:00 +25°C° 0.1 mm 3 m/s 742 mmHg 73%
    18:00 +22°C° 0 mm 3 m/s 742 mmHg 76%
    19:00 +21°C° 0 mm 2 m/s 742 mmHg 79%
    20:00 +19°C° 0 mm 2 m/s 742 mmHg 82%
    21:00 +18°C° 0 mm 2 m/s 742 mmHg 84%
    22:00 +17°C° 0 mm 2 m/s 743 mmHg 86%
    23:00 +16°C° 0 mm 2 m/s 743 mmHg 88%

    Après-demain, 19 Juin, Mercredi

    Heure Température Précipitation Vent Pression Humidité
    00:00 +16°C° 0 mm 2 m/s 743 mmHg 88%
    01:00 +15°C° 0 mm 2 m/s 743 mmHg 88%
    02:00 +15°C° 0 mm 2 m/s 743 mmHg 88%
    03:00 +15°C° 0 mm 2 m/s 743 mmHg 86%
    04:00 +15°C° 0 mm 2 m/s 744 mmHg 85%
    05:00 +15°C° 0 mm 2 m/s 744 mmHg 83%
    06:00 +17°C° 0 mm 2 m/s 744 mmHg 78%
    07:00 +19°C° 0 mm 2 m/s 744 mmHg 74%
    08:00 +21°C° 0 mm 2 m/s 745 mmHg 69%
    09:00 +22°C° 0 mm 3 m/s 745 mmHg 65%
    10:00 +24°C° 0 mm 3 m/s 745 mmHg 60%
    11:00 +25°C° 0 mm 3 m/s 745 mmHg 56%
    12:00 +26°C° 0 mm 3 m/s 745 mmHg 55%
    13:00 +26°C° 0 mm 3 m/s 745 mmHg 54%
    14:00 +27°C° 0 mm 3 m/s 745 mmHg 53%
    15:00 +26°C° 0 mm 2 m/s 745 mmHg 57%
    16:00 +26°C° 0 mm 2 m/s 745 mmHg 60%
    17:00 +26°C° 0 mm 2 m/s 744 mmHg 64%
    18:00 +24°C° 0 mm 2 m/s 744 mmHg 67%
    19:00 +22°C° 0 mm 1 m/s 744 mmHg 70%
    20:00 +20°C° 0 mm 1 m/s 744 mmHg 73%
    21:00 +19°C° 0 mm 1 m/s 745 mmHg 74%
    22:00 +18°C° 0 mm 1 m/s 745 mmHg 74%
    23:00 +16°C° 0 mm 1 m/s 745 mmHg 75%

    20 Juin, Jeudi

    Heure Température Précipitation Vent Pression Humidité
    00:00 +16°C° 0 mm 1 m/s 745 mmHg 77%
    01:00 +15°C° 0 mm 1 m/s 745 mmHg 78%
    02:00 +15°C° 0 mm 1 m/s 745 mmHg 79%
    03:00 +15°C° 0 mm 1 m/s 746 mmHg 79%
    04:00 +16°C° 0 mm 1 m/s 746 mmHg 78%
    05:00 +18°C° 0 mm 1 m/s 746 mmHg 78%
    06:00 +20°C° 0 mm 1 m/s 746 mmHg 73%
    07:00 +21°C° 0 mm 1 m/s 746 mmHg 68%
    08:00 +23°C° 0 mm 1 m/s 746 mmHg 64%
    09:00 +25°C° 0 mm 1 m/s 746 mmHg 60%
    10:00 +26°C° 0 mm 1 m/s 746 mmHg 55%
    11:00 +27°C° 0 mm 1 m/s 746 mmHg 51%
    12:00 +27°C° 0 mm 1 m/s 746 mmHg 49%
    13:00 +28°C° 0 mm 1 m/s 746 mmHg 47%
    14:00 +28°C° 0 mm 1 m/s 746 mmHg 45%
    15:00 +28°C° 0 mm 1 m/s 746 mmHg 49%
    16:00 +26°C° 0 mm 0 m/s 746 mmHg 53%
    17:00 +26°C° 0 mm 0 m/s 746 mmHg 57%
    18:00 +23°C° 0 mm 0 m/s 746 mmHg 60%
    19:00 +21°C° 0 mm 0 m/s 746 mmHg 64%
    20:00 +19°C° 0 mm 0 m/s 746 mmHg 67%
    21:00 +20°C° 0 mm 1 m/s 746 mmHg 70%
    22:00 +19°C° 0 mm 1 m/s 746 mmHg 73%
    23:00 +19°C° 0 mm 1 m/s 746 mmHg 75%

    21 Juin, Vendredi

    Heure Température Précipitation Vent Pression Humidité
    00:00 +18°C° 0 mm 1 m/s 746 mmHg 77%
    01:00 +18°C° 0 mm 1 m/s 746 mmHg 80%
    02:00 +16°C° 0 mm 1 m/s 746 mmHg 82%
    03:00 +18°C° 0 mm 1 m/s 747 mmHg 82%
    04:00 +19°C° 0 mm 1 m/s 747 mmHg 82%
    05:00 +19°C° 0 mm 1 m/s 747 mmHg 82%
    06:00 +21°C° 0 mm 1 m/s 747 mmHg 77%
    07:00 +23°C° 0 mm 1 m/s 747 mmHg 71%
    08:00 +24°C° 0 mm 1 m/s 747 mmHg 66%
    09:00 +25°C° 0 mm 1 m/s 747 mmHg 62%
    10:00 +26°C° 0 mm 2 m/s 747 mmHg 58%
    11:00 +27°C° 0 mm 2 m/s 747 mmHg 54%
    12:00 +27°C° 0 mm 2 m/s 747 mmHg 53%
    13:00 +28°C° 0 mm 2 m/s 747 mmHg 53%
    14:00 +28°C° 0 mm 2 m/s 746 mmHg 53%
    15:00 +28°C° 0 mm 2 m/s 746 mmHg 57%
    16:00 +27°C° 0 mm 2 m/s 746 mmHg 60%
    17:00 +27°C° 0 mm 2 m/s 746 mmHg 64%
    18:00 +25°C° 0 mm 2 m/s 746 mmHg 68%
    19:00 +23°C° 0 mm 1 m/s 746 mmHg 72%
    20:00 +22°C° 0 mm 1 m/s 746 mmHg 76%
    21:00 +21°C° 0 mm 1 m/s 746 mmHg 78%
    22:00 +20°C° 0 mm 1 m/s 746 mmHg 79%
    23:00 +19°C° 0 mm 2 m/s 746 mmHg 80%

    22 Juin, Samedi

    Heure Température Précipitation Vent Pression Humidité
    00:00 +18°C° 0 mm 2 m/s 746 mmHg 82%
    01:00 +19°C° 0 mm 1 m/s 746 mmHg 83%
    02:00 +18°C° 0 mm 1 m/s 746 mmHg 85%
    03:00 +19°C° 0 mm 1 m/s 746 mmHg 85%
    04:00 +19°C° 0 mm 1 m/s 747 mmHg 85%
    05:00 +20°C° 0 mm 1 m/s 747 mmHg 85%
    06:00 +21°C° 0 mm 2 m/s 747 mmHg 80%
    07:00 +23°C° 0 mm 2 m/s 747 mmHg 76%
    08:00 +25°C° 0 mm 2 m/s 747 mmHg 71%
    09:00 +26°C° 0 mm 2 m/s 747 mmHg 67%
    10:00 +27°C° 0 mm 2 m/s 747 mmHg 62%
    11:00 +28°C° 0 mm 3 m/s 747 mmHg 57%
    12:00 +28°C° 0 mm 3 m/s 746 mmHg 57%
    13:00 +28°C° 0 mm 3 m/s 746 mmHg 57%
    14:00 +28°C° 0 mm 3 m/s 746 mmHg 58%
    15:00 +28°C° 0 mm 3 m/s 746 mmHg 61%
    16:00 +28°C° 0 mm 3 m/s 746 mmHg 64%
    17:00 +28°C° 0 mm 2 m/s 745 mmHg 67%
    18:00 +26°C° 0 mm 2 m/s 745 mmHg 72%
    19:00 +24°C° 0 mm 2 m/s 746 mmHg 76%
    20:00 +21°C° 0 mm 2 m/s 746 mmHg 80%
    21:00 +21°C° 0 mm 2 m/s 746 mmHg 82%
    22:00 +20°C° 0 mm 2 m/s 746 mmHg 83%
    23:00 +19°C° 0 mm 2 m/s 746 mmHg 85%
    Voir plus